Theta_e
288 288 287 286 286 287 286 287 288 287 287 286 287 286 286 286 286 285 286 286 286 286 285 285 285 285 285 284 284 284 283 283 282 282 282 282 282 282 281 280 279 279 279 278 278 279 278 278 278 278 277 277 277 277 277 277 276 276 276 276 277 278
288 287 286 286 286 286 287 287 287 287 287 286 286 285 285 285 285 285 285 285 286 285 284 284 285 284 284 284 284 283 283 282 282 282 281 282 282 280 279 279 278 278 278 277 278 277 277 277 277 277 276 276 276 276 277 276 275 275 275 275 276 278
288 287 286 285 285 286 286 286 286 286 286 286 286 285 284 284 284 284 284 284 283 283 283 283 283 283 283 283 283 282 282 282 282 281 281 281 280 279 279 278 278 278 277 277 277 276 276 276 276 276 275 275 275 275 275 275 275 274 274 274 274 275
287 286 285 284 285 284 285 286 285 285 284 285 284 284 283 283 283 283 283 283 283 282 282 282 282 283 282 282 282 282 281 281 281 280 280 279 279 279 278 278 278 277 277 276 276 276 276 276 276 275 274 274 274 274 277 276 274 273 273 273 273 273
287 285 285 284 284 284 284 284 284 284 283 283 283 283 282 283 283 283 283 282 282 282 282 282 282 282 281 281 281 281 281 280 280 280 279 279 278 278 277 277 276 276 276 275 276 275 275 275 275 275 274 274 274 274 273 274 273 273 273 272 273 273
286 285 284 284 283 283 283 283 283 283 283 283 283 282 282 282 283 283 282 282 282 282 281 281 282 281 281 280 280 280 279 279 279 279 279 278 277 277 277 276 276 276 275 275 274 274 274 275 274 274 274 274 273 273 273 273 273 272 273 273 273 273
285 285 285 284 283 283 283 283 283 283 283 283 283 282 282 283 283 282 282 282 281 281 281 281 281 281 280 280 279 279 278 278 278 278 278 277 277 276 276 276 274 274 275 276 274 274 274 273 273 274 274 273 273 273 273 272 272 273 273 273 273 277
286 285 284 284 284 283 283 283 283 283 283 283 283 282 282 283 282 282 282 281 281 281 280 280 280 280 279 279 278 278 278 278 278 278 277 277 276 275 275 275 274 274 273 273 273 273 273 273 273 273 272 273 273 273 272 272 272 273 273 273 274 273
285 285 284 284 283 283 283 283 283 283 283 282 282 283 283 282 282 282 282 281 281 280 280 280 280 280 279 279 278 278 277 277 276 276 276 277 276 275 274 274 274 274 273 273 273 273 273 273 273 272 272 272 272 272 272 272 273 273 273 274 274 273
286 285 284 284 284 283 283 283 283 283 283 283 283 282 283 283 282 282 281 280 280 280 280 280 280 279 279 279 279 278 277 277 276 276 276 276 276 275 274 274 273 273 273 273 272 272 272 272 272 272 271 271 271 273 273 274 274 273 273 273 273 273
286 285 284 284 284 283 283 283 282 283 283 283 283 283 283 282 282 281 281 280 280 280 280 281 281 281 280 279 279 278 277 277 277 277 276 276 275 275 274 273 273 273 272 272 272 272 272 272 272 272 271 271 272 273 273 273 273 273 272 272 273 273
287 286 285 284 283 283 282 282 282 283 283 283 283 283 282 282 282 281 281 280 280 280 281 281 282 280 279 279 279 278 277 277 276 276 276 276 275 275 274 273 273 272 272 272 271 271 272 272 272 274 277 276 272 272 273 273 272 272 272 272 272 272
287 286 285 284 283 283 283 283 283 283 283 283 283 283 283 282 281 281 281 280 280 281 281 281 280 280 279 279 278 277 276 276 276 276 275 274 274 273 273 272 272 272 272 271 271 271 271 272 272 276 277 277 278 275 274 273 272 273 272 271 271 271
287 286 285 284 284 284 283 283 283 283 283 283 283 283 283 282 281 281 281 280 281 281 281 281 280 280 279 278 277 276 276 275 275 274 274 273 273 272 272 271 271 271 271 271 270 270 270 270 276 277 278 278 278 277 275 274 274 274 273 273 272 271
288 287 286 285 285 284 284 284 283 283 283 283 283 283 282 282 281 281 281 280 281 281 280 279 279 279 278 277 276 275 274 274 273 273 273 273 273 272 271 271 271 270 270 270 270 269 269 270 275 277 278 278 278 278 277 275 274 273 273 273 273 273
287 287 287 286 286 285 284 284 284 284 284 283 283 282 282 282 281 281 281 281 281 281 280 279 279 278 277 276 275 274 274 273 273 273 273 273 272 271 270 268 269 269 269 269 269 268 268 269 274 277 278 277 277 277 277 275 274 273 273 273 273 273
287 287 286 286 286 285 284 284 284 284 283 283 283 282 282 282 281 281 281 281 281 280 280 279 279 278 277 276 275 274 273 273 272 273 273 272 272 270 269 269 269 269 268 267 267 267 268 269 274 276 277 277 277 277 277 275 274 273 273 273 273 273
287 287 287 286 285 285 285 285 284 284 283 283 283 283 282 282 281 281 281 281 280 280 280 279 278 278 276 275 274 273 274 273 273 273 272 270 269 267 268 267 267 268 268 267 265 266 266 267 274 275 276 277 277 277 275 273 273 272 272 272 272 271
287 287 287 286 286 285 285 285 284 284 283 283 283 283 282 281 280 280 281 280 280 280 280 280 279 278 276 275 274 274 274 273 272 271 270 269 270 269 269 268 268 267 267 266 265 265 265 265 271 275 276 276 277 276 273 272 271 270 269 270 271 271
287 286 288 286 286 286 286 285 285 284 283 283 282 281 280 280 280 281 280 280 280 280 280 280 279 278 277 275 274 274 274 272 271 270 270 270 269 269 268 267 266 266 266 265 265 265 264 264 268 273 275 275 276 275 272 271 270 270 270 270 271 271
287 287 286 286 286 285 285 284 284 283 282 281 281 281 280 280 281 280 280 280 281 281 280 280 279 279 277 276 275 274 273 272 272 271 269 269 269 268 267 267 266 264 264 264 264 268 266 264 266 272 274 275 275 275 272 271 270 269 269 269 269 271
285 284 284 285 284 284 284 284 283 283 282 281 280 280 280 281 281 281 281 281 281 280 280 280 279 279 278 277 275 274 273 272 270 269 269 268 268 267 266 266 265 264 264 264 263 264 265 264 263 266 273 274 275 276 272 270 269 268 269 269 270 269
284 284 283 283 283 283 283 284 283 282 282 281 280 280 281 282 282 281 281 280 279 279 279 279 279 279 278 277 276 274 272 271 271 269 268 267 266 266 265 264 264 263 263 263 263 262 262 263 263 264 272 274 275 276 275 271 270 270 269 269 269 269
281 281 281 281 282 282 283 283 283 281 280 280 281 282 283 281 280 280 279 279 279 279 278 278 278 278 278 275 274 272 271 270 270 269 267 266 266 265 265 263 263 262 262 262 262 262 262 264 266 262 269 273 275 276 276 273 271 271 270 269 269 270
281 281 281 280 281 281 282 281 281 280 280 280 282 283 280 279 279 279 279 278 278 278 277 277 276 276 275 274 273 272 271 269 268 266 266 266 265 264 264 263 262 262 262 262 262 263 263 262 264 270 266 271 274 276 276 276 274 275 272 270 269 270
280 280 279 279 279 279 280 281 280 280 280 281 283 278 277 278 278 278 278 278 277 277 275 275 274 274 273 273 272 271 270 267 267 265 265 265 265 264 263 263 262 262 262 262 263 263 263 263 263 266 271 270 273 275 276 277 277 277 273 273 272 272
280 279 277 276 276 276 278 279 280 279 279 281 278 278 278 278 277 277 277 277 276 276 274 272 272 272 271 270 271 270 269 267 265 265 264 264 264 264 264 263 263 262 263 263 263 264 264 264 264 263 268 273 273 275 276 277 277 277 277 274 274 274
277 277 276 274 274 276 276 276 278 279 280 278 276 276 276 275 276 276 276 276 275 274 271 271 268 268 268 268 269 271 270 268 266 266 264 264 264 264 264 264 264 263 263 263 264 264 264 264 264 264 265 269 272 273 275 276 276 276 276 276 275 276
277 276 275 275 274 275 274 274 276 279 276 275 276 275 274 274 275 275 273 273 272 270 270 271 270 268 266 266 266 267 267 267 266 266 265 264 264 264 264 265 265 265 264 264 264 264 264 264 264 265 265 266 267 268 270 272 273 275 275 274 273 274
276 275 274 277 276 275 274 274 276 277 275 273 273 272 273 273 273 274 273 272 271 270 269 270 268 268 266 265 266 266 266 266 266 266 266 265 265 265 265 265 265 266 266 265 265 264 263 264 264 265 265 266 266 266 267 268 269 269 270 271 272 272
276 276 276 278 276 275 273 274 274 273 273 273 267 269 271 272 270 270 269 268 268 270 268 268 267 267 266 265 264 265 267 267 266 267 268 267 265 267 267 266 267 267 267 267 266 265 264 264 264 265 270 268 270 268 267 267 268 269 270 272 274 272
275 275 276 277 274 273 273 272 272 271 270 270 267 267 269 269 268 267 267 267 267 266 265 265 265 265 265 265 264 263 263 267 271 269 265 265 270 273 274 273 268 268 267 267 267 267 266 266 266 271 273 273 274 274 274 273 273 274 272 274 275 273
273 273 273 274 274 273 272 272 271 270 269 271 270 270 269 269 270 268 268 269 268 268 267 265 265 265 264 264 263 262 263 262 265 272 274 273 271 272 274 275 275 275 273 269 266 268 273 273 273 274 274 275 275 275 276 276 276 276 276 276 274 270
272 273 273 273 272 272 272 272 271 269 268 268 269 269 269 269 270 271 270 269 268 268 267 265 265 264 264 264 263 263 262 263 263 264 270 273 273 273 273 274 275 275 275 274 272 267 267 272 274 274 274 275 275 276 276 276 277 277 277 276 276 268
272 272 271 272 271 271 270 270 270 268 266 267 267 267 268 267 268 270 268 267 268 267 267 266 265 264 264 264 263 263 263 263 263 263 263 268 273 274 274 274 275 275 275 276 275 274 271 271 273 274 275 275 276 276 276 277 277 277 277 276 273 268
271 271 271 270 270 269 269 268 264 264 264 264 264 265 266 266 267 267 266 266 265 266 265 265 265 264 264 264 263 263 263 263 264 263 264 264 266 269 273 275 275 275 275 275 276 276 276 275 274 275 275 276 276 276 276 276 275 276 276 275 269 267
271 270 270 270 268 267 265 263 259 260 260 263 262 263 263 263 264 263 265 266 266 264 264 264 264 263 263 262 263 262 262 263 262 264 263 264 265 265 266 267 268 271 275 273 274 275 276 276 276 276 276 276 276 276 276 276 272 271 270 271 268 266
268 266 265 264 264 263 263 259 258 258 258 259 260 261 262 263 263 263 264 263 264 263 263 261 262 261 262 261 261 261 261 261 261 261 261 262 262 262 262 263 264 265 269 271 273 273 273 274 274 274 275 275 275 275 275 270 269 268 268 267 265 264
Wind_Speed
9 9 8 7 7 7 7 7 7 7 6 7 8 9 8 8 7 7 7 6 7 7 8 9 9 8 8 7 8 8 9 8 7 7 7 6 5 5 4 4 4 3 4 4 4 4 4 4 4 4 3 3 4 3 4 4 3 3 3 3 3 2
9 9 10 9 9 9 7 7 7 8 7 8 7 6 6 7 8 8 8 7 7 8 8 7 8 8 8 8 9 8 7 7 8 7 6 6 5 4 4 4 4 4 4 4 5 4 4 4 4 3 3 4 3 3 3 2 3 3 3 3 3 2
9 8 7 7 6 6 6 7 8 7 7 8 7 9 9 8 8 8 7 8 8 10 10 9 9 9 8 8 7 8 8 7 7 6 6 6 5 5 5 4 4 4 4 4 4 4 4 4 3 2 3 3 3 2 2 1 2 2 2 2 3 3
9 8 8 7 8 8 8 7 7 7 7 7 8 8 7 9 8 8 8 7 8 9 9 9 8 8 8 9 8 8 7 7 7 6 6 6 5 5 5 5 4 4 4 4 4 4 4 3 2 2 2 3 2 2 1 1 1 2 2 2 2 3
10 10 10 10 10 9 8 8 7 7 7 7 7 9 8 7 8 8 8 9 9 9 9 9 8 8 8 9 7 7 7 7 7 7 7 6 5 4 4 4 4 4 4 4 4 4 3 2 2 1 2 1 1 0 1 2 2 1 2 2 2 2
9 10 10 11 10 9 9 7 6 7 6 7 8 9 9 8 8 8 8 8 9 9 9 9 8 9 9 9 7 8 7 7 7 7 7 6 6 6 4 4 4 4 4 4 4 4 2 2 2 1 1 1 0 1 1 1 1 2 2 2 2 2
12 12 11 11 10 9 8 9 8 8 7 7 9 8 8 8 8 9 8 9 10 9 9 9 9 9 9 8 8 8 8 7 7 7 7 7 7 5 6 4 4 4 4 4 3 2 3 3 2 1 0 0 0 0 0 1 1 2 2 2 2 3
11 10 11 10 10 11 10 9 8 9 7 8 7 9 8 8 8 8 9 9 11 10 10 10 9 9 9 9 8 9 8 8 7 7 6 7 7 6 5 5 4 3 4 4 3 3 2 2 2 1 1 0 0 0 0 1 2 2 2 3 3 3
14 14 12 11 10 10 10 10 10 9 9 9 8 8 9 9 9 9 9 9 9 10 10 10 10 9 9 9 9 8 8 8 7 7 7 6 7 7 6 4 4 4 4 2 3 2 3 2 1 2 1 1 1 1 2 2 2 1 1 2 2 2
13 12 13 13 12 11 10 9 10 11 10 11 9 9 9 8 9 10 9 9 9 9 10 9 9 8 8 8 8 8 8 8 7 7 7 7 7 7 6 6 5 3 4 2 3 2 2 2 2 2 2 2 2 1 0 0 0 1 2 2 2 2
15 15 14 13 12 13 12 11 10 10 9 9 10 9 10 9 10 10 10 9 10 10 10 9 8 7 8 9 9 9 8 8 8 7 7 7 6 6 6 5 5 4 4 3 3 2 2 3 2 2 3 3 1 1 0 1 1 1 2 3 3 3
13 14 13 13 15 14 12 12 13 13 13 12 11 11 10 10 11 11 10 11 11 9 9 10 8 9 9 10 10 9 9 8 8 8 8 7 7 7 6 5 5 4 4 4 4 4 3 2 2 4 7 5 3 1 0 1 1 2 2 2 3 3
11 11 13 14 14 15 15 14 13 11 11 12 12 12 11 11 11 11 11 11 10 10 10 10 9 10 11 10 9 7 9 9 7 7 6 6 7 7 6 6 6 5 4 5 4 4 4 3 3 8 7 7 6 3 1 1 2 2 2 3 3 4
13 15 16 16 15 15 14 14 13 13 14 14 13 12 11 11 11 12 11 10 10 10 11 10 10 10 10 9 9 8 8 7 7 7 7 7 7 6 5 6 6 5 4 4 4 4 4 3 6 9 8 7 6 4 3 2 2 3 3 3 3 3
17 17 15 13 14 15 16 14 13 15 15 14 13 10 11 12 12 11 10 10 11 11 10 10 11 11 10 9 9 8 8 8 7 7 8 8 6 6 6 7 6 6 5 5 5 4 4 3 7 8 8 7 6 5 4 3 3 4 4 5 5 4
8 10 13 14 13 13 10 11 13 11 9 10 9 12 11 12 11 12 12 11 12 11 10 11 11 10 10 9 9 8 9 9 9 7 6 6 6 7 6 5 6 6 6 6 5 4 4 3 7 8 8 7 6 5 5 4 4 4 5 6 6 6
10 9 9 11 12 11 11 11 10 10 10 11 12 12 13 12 13 12 12 12 11 10 10 11 11 10 9 9 9 9 9 9 7 8 7 8 8 9 9 8 7 6 5 5 4 4 4 4 8 8 7 7 6 6 6 4 5 5 6 6 6 4
13 13 11 8 9 10 12 13 11 12 13 12 13 13 13 13 12 12 12 12 11 11 12 11 11 10 10 10 10 10 10 9 10 10 7 6 5 4 4 4 4 6 6 5 4 4 5 4 9 8 8 7 7 7 4 4 5 6 5 4 4 4
8 8 7 9 11 12 13 11 12 12 11 12 12 12 11 11 11 13 13 12 10 11 11 12 12 12 11 11 11 11 11 10 9 7 6 7 7 7 7 8 6 6 6 6 5 5 5 5 7 8 7 7 8 7 2 5 4 3 4 5 5 5
6 7 10 10 11 11 10 10 12 11 11 11 10 10 10 10 13 12 11 11 11 11 11 12 12 13 12 11 13 13 11 8 6 8 8 10 9 9 8 7 6 5 6 7 7 7 6 6 7 8 7 8 9 8 5 5 5 5 5 5 6 5
8 7 7 8 10 8 8 9 11 11 10 9 9 10 10 12 13 12 12 12 12 12 12 11 12 12 12 13 13 12 11 11 11 8 8 7 6 7 6 6 7 5 5 5 6 8 8 6 7 9 9 10 10 9 4 5 4 5 6 5 5 6
7 6 7 9 8 7 9 9 9 9 9 9 8 9 12 13 13 12 12 11 11 9 10 10 11 12 12 14 11 9 10 7 7 8 9 7 7 7 6 6 7 8 6 5 5 6 6 7 6 6 11 11 12 14 7 5 6 7 7 6 6 5
6 8 7 6 7 7 8 8 9 9 8 8 8 11 14 13 10 9 9 8 8 8 10 9 11 13 12 11 11 10 8 8 9 8 8 8 7 6 6 7 6 6 6 6 6 6 7 7 7 7 11 12 14 16 14 6 8 7 6 5 6 5
5 5 5 5 7 7 7 8 9 7 7 8 10 13 12 8 7 7 7 8 9 9 9 10 10 10 10 8 8 9 9 7 8 9 9 7 7 8 8 6 6 6 6 5 6 6 7 8 12 7 10 14 15 16 19 9 9 8 6 7 6 7
6 6 5 5 6 6 6 8 8 7 7 10 14 11 6 6 6 7 7 8 8 9 10 9 10 9 8 9 10 11 10 8 8 8 8 9 8 8 8 8 7 6 6 6 7 7 8 8 8 14 9 13 16 18 19 19 13 14 9 7 8 8
5 6 5 5 5 5 6 9 9 7 8 13 11 4 5 5 6 6 7 8 8 8 8 8 9 8 8 9 9 9 9 9 8 8 8 8 9 8 9 7 7 6 7 9 8 7 7 7 7 10 16 12 17 17 19 19 19 17 10 8 8 6
7 6 5 4 5 5 6 6 9 8 10 9 4 6 7 6 6 7 7 8 7 8 7 6 7 8 8 8 10 10 9 8 9 9 7 8 8 8 9 9 8 9 9 7 8 8 7 7 7 7 11 17 16 17 18 18 18 18 18 11 8 8
5 6 6 5 5 5 5 5 6 9 9 2 5 5 5 6 7 7 8 7 7 7 6 7 6 6 7 8 8 10 9 11 11 10 9 9 9 9 10 9 9 9 8 9 8 8 7 7 7 7 7 9 12 14 17 18 17 17 17 16 10 14
6 6 6 6 5 5 5 6 6 8 3 4 4 5 5 6 7 7 6 7 6 5 7 8 8 7 6 6 6 6 7 7 8 9 9 10 10 10 10 9 9 9 9 10 9 7 6 7 7 7 7 7 7 7 8 10 10 15 15 11 8 10
6 6 5 6 6 6 5 6 8 8 5 2 4 5 6 6 7 8 7 7 6 6 7 7 8 8 7 7 8 9 8 8 9 10 12 14 15 14 13 11 11 12 12 11 9 7 6 7 7 8 9 8 8 7 7 7 6 6 5 6 6 6
6 7 6 7 5 5 5 6 6 2 2 1 2 4 5 5 4 3 3 3 5 6 5 6 5 6 7 7 7 7 7 9 10 12 10 6 4 8 10 10 10 10 9 8 8 9 8 7 9 11 10 10 12 11 8 8 8 7 6 9 11 7
6 6 7 6 3 5 5 5 3 2 3 4 3 3 4 3 3 3 4 4 5 4 4 4 5 5 6 7 7 6 6 6 8 7 6 6 6 12 13 9 8 6 5 7 7 7 10 10 8 9 16 17 18 18 18 15 14 14 11 12 16 8
4 4 5 4 2 2 2 1 2 4 4 6 6 6 6 5 6 5 6 5 6 6 6 6 6 6 6 6 5 5 6 6 6 11 14 12 10 11 13 15 14 12 12 9 7 7 12 8 8 13 15 17 17 17 17 18 17 18 18 16 10 5
4 5 3 0 1 1 1 1 1 3 4 5 5 5 6 6 6 7 6 6 5 6 6 6 6 6 7 6 6 7 6 6 7 7 10 14 13 13 14 14 14 13 12 13 10 6 4 8 11 12 13 14 15 16 17 18 20 20 20 17 17 7
4 3 2 2 1 1 1 1 1 2 4 5 5 5 5 5 5 6 4 4 5 6 6 6 6 6 7 7 7 6 6 7 7 8 6 6 13 18 17 16 16 17 16 15 15 13 11 10 11 14 15 16 17 17 18 19 20 20 19 18 12 7
3 3 3 3 3 3 2 2 3 3 1 2 4 4 5 5 5 5 4 4 4 5 6 6 6 6 6 6 6 6 6 6 6 6 5 4 4 7 12 16 18 16 16 16 16 15 15 15 16 16 16 16 16 17 18 18 14 18 20 17 8 7
2 1 2 3 2 2 2 3 4 4 4 1 2 3 3 3 3 3 3 4 3 3 5 5 5 5 5 5 6 6 6 6 4 4 5 5 5 6 7 5 4 6 11 9 8 10 12 14 15 15 15 17 17 18 18 17 10 9 8 9 6 7
3 3 3 3 3 3 4 4 5 5 5 3 1 1 1 1 1 1 1 1 1 0 1 2 3 3 4 4 5 4 4 4 4 5 5 4 3 2 1 0 1 1 3 6 9 10 11 13 13 13 14 14 15 14 14 8 8 7 8 8 6 6
Wind_Direction
160 157 152 148 145 145 142 140 137 138 143 148 151 152 151 146 140 133 129 130 130 127 123 120 116 114 112 111 109 112 114 114 107 104 111 106 106 109 114 123 133 128 111 101 98 90 82 83 80 62 28 48 56 36 62 41 36 27 357 336 54 355
159 157 154 152 150 149 145 140 137 144 146 147 147 139 137 135 134 134 134 133 127 121 113 110 114 115 117 119 121 118 115 114 116 122 122 125 119 121 118 118 117 106 98 90 85 84 81 71 60 69 32 51 62 59 63 11 39 27 359 348 353 351
156 150 146 140 135 138 138 143 149 149 145 153 153 149 146 141 139 134 136 128 127 124 123 125 123 121 119 115 112 114 118 120 120 120 118 106 112 113 110 111 110 104 106 103 98 95 96 84 58 37 53 56 52 28 89 23 32 31 335 9 341 343
151 143 138 137 141 149 149 151 150 153 156 156 147 144 150 145 142 141 137 132 131 128 126 125 123 120 117 117 118 120 123 124 121 119 107 111 118 116 122 119 114 111 113 111 101 102 92 85 79 64 63 74 33 21 25 58 28 15 350 358 338 332
157 155 155 157 158 156 154 160 161 159 158 152 154 151 158 152 147 143 139 136 134 133 130 129 128 125 124 124 128 128 128 126 123 120 121 124 124 118 123 127 118 117 116 112 117 102 111 114 111 84 102 57 95 47 7 8 24 1 334 334 305 312
152 154 162 161 162 163 164 161 156 159 161 159 155 159 157 150 147 143 141 138 135 136 133 133 133 130 133 134 140 135 132 129 127 129 130 138 129 127 121 115 127 122 116 122 121 138 139 117 113 120 117 138 115 63 7 359 354 322 296 284 294 306
169 173 168 167 165 163 161 165 166 166 167 163 163 163 159 149 148 146 147 144 142 144 142 142 143 143 144 144 143 140 134 131 131 134 142 138 137 138 130 123 120 130 127 123 136 141 153 148 139 145 124 90 86 111 55 301 302 292 280 281 275 281
169 167 173 171 171 168 166 168 169 170 168 171 166 161 158 156 151 154 151 152 149 151 151 152 153 155 153 149 146 144 141 138 140 142 144 144 141 138 134 140 145 139 137 140 144 149 156 156 147 148 149 167 135 124 229 233 245 249 260 271 274 269
184 181 173 172 170 172 172 172 171 171 170 170 170 166 160 160 157 158 158 158 157 156 160 162 163 160 154 151 149 145 143 145 148 146 148 151 141 136 141 139 137 138 133 152 150 167 172 167 169 165 171 178 180 189 207 240 250 257 267 266 269 283
179 175 177 174 176 172 173 174 173 172 173 174 171 168 165 165 162 163 164 161 162 165 167 167 164 158 153 149 148 148 147 147 150 151 149 143 143 145 146 150 147 147 140 165 149 192 160 178 187 199 187 172 165 166 270 244 279 292 290 296 306 303
187 181 178 180 172 177 175 170 172 173 175 175 175 170 174 166 164 169 169 166 169 174 169 165 164 155 148 149 150 151 151 153 153 152 149 146 144 141 145 144 143 150 155 159 170 203 201 185 198 198 175 137 87 96 101 302 296 303 298 299 296 288
186 183 179 177 181 177 174 175 178 181 177 177 177 174 175 166 173 172 173 174 176 172 170 168 162 156 151 154 160 159 155 155 156 157 155 152 146 145 142 140 145 160 171 176 194 194 203 201 199 195 178 173 156 150 196 288 288 279 279 285 294 295
188 182 183 186 182 180 180 182 180 176 178 179 180 178 176 170 174 179 177 180 176 173 170 168 164 156 161 163 159 158 157 160 160 160 157 150 149 151 151 149 164 172 186 186 193 205 197 196 207 206 200 203 202 177 183 236 269 276 279 276 274 278
190 190 191 185 183 182 181 181 179 177 186 182 181 178 170 173 178 180 183 178 175 176 174 170 161 162 165 161 165 164 164 158 159 161 160 156 155 157 147 161 179 178 187 188 197 202 205 203 212 212 209 208 212 207 189 226 259 266 266 269 266 271
196 194 188 183 186 187 188 180 176 187 186 181 180 164 173 179 181 180 181 182 181 180 174 165 167 169 167 170 166 165 161 163 164 164 166 173 166 149 165 181 174 189 186 184 199 209 207 200 224 218 217 213 215 220 224 233 246 255 260 263 270 270
195 193 192 191 188 186 177 178 185 185 174 168 161 174 180 179 184 185 188 186 186 180 173 170 170 173 173 167 167 166 168 170 179 175 169 156 158 169 170 180 185 184 190 193 195 203 210 203 224 224 218 216 216 222 229 231 238 247 253 257 262 265
189 187 184 184 178 172 166 176 176 168 170 174 176 180 182 188 189 190 188 189 187 174 172 174 174 173 170 171 171 172 177 180 172 169 174 172 176 177 181 184 186 190 188 195 188 193 212 214 224 226 220 218 218 226 233 233 237 239 247 250 251 249
186 184 183 159 150 165 173 180 172 171 181 177 182 185 190 188 189 192 191 192 184 180 179 174 175 174 173 173 176 180 184 182 181 177 171 169 176 176 163 188 180 185 188 187 180 192 223 231 231 229 225 222 222 224 222 230 237 241 242 245 247 248
169 169 152 161 169 172 183 175 172 178 176 182 191 187 185 183 190 195 195 190 184 182 179 177 175 179 179 179 180 188 189 183 183 174 163 169 182 180 187 190 190 190 179 178 181 198 227 229 234 231 222 222 220 217 191 223 230 234 236 244 241 241
153 160 163 171 178 181 175 170 173 174 177 185 181 176 181 184 197 197 191 190 188 186 182 182 180 183 183 180 189 193 192 183 174 178 176 178 181 189 192 181 180 187 180 178 193 197 211 229 229 226 221 220 219 213 200 220 226 234 233 237 242 242
155 158 156 162 174 176 160 160 160 166 175 172 172 173 180 194 200 194 192 195 192 189 186 185 184 185 183 189 196 190 183 184 186 178 175 184 180 186 165 172 180 188 187 185 189 205 211 227 231 229 227 225 224 220 196 209 216 234 238 235 238 236
116 132 153 167 170 153 149 146 154 164 168 173 166 177 194 202 201 196 197 195 191 186 184 185 187 189 188 195 192 185 190 172 156 171 178 184 178 172 172 175 181 188 199 185 184 208 214 218 233 227 229 227 224 219 202 199 214 226 228 226 229 230
146 160 164 156 146 145 148 148 153 169 171 166 171 196 205 205 198 193 195 186 181 183 187 188 189 192 197 192 187 180 171 173 178 169 172 176 171 165 173 182 185 188 199 193 196 201 220 215 224 233 226 228 224 221 214 194 218 222 223 224 230 234
118 115 121 142 148 146 147 150 159 167 161 169 195 209 210 195 186 182 177 180 186 188 187 190 195 193 190 177 158 164 181 183 170 174 173 167 171 179 186 184 187 192 204 209 209 212 218 219 219 221 234 229 227 224 221 211 216 217 215 226 227 231
138 147 150 147 146 149 153 150 161 166 173 187 212 211 186 177 176 174 178 182 186 190 190 190 184 184 175 174 176 174 180 171 168 169 166 169 176 183 188 191 190 193 208 218 222 220 219 217 222 223 224 232 229 226 224 224 222 224 219 214 228 230
135 140 141 144 150 153 156 158 165 174 180 210 217 165 160 171 173 168 176 187 192 187 188 186 185 181 177 175 171 174 169 173 173 169 176 176 178 183 193 199 193 199 211 218 226 217 217 212 207 225 225 225 228 227 226 227 228 225 220 223 232 235
151 142 137 147 153 162 168 172 165 175 196 223 163 179 175 176 166 172 186 191 191 190 187 173 179 180 178 174 168 172 178 174 166 175 186 178 187 190 199 204 191 205 213 216 224 221 212 206 203 213 226 225 224 226 227 227 229 232 233 235 229 228
134 138 146 158 166 171 176 183 170 173 218 175 171 178 167 160 168 182 195 193 191 189 165 172 182 180 179 176 185 188 184 178 179 185 182 185 197 197 202 203 197 208 209 218 223 218 207 195 197 212 219 228 226 226 227 227 228 231 235 239 244 245
142 159 163 177 200 183 187 186 203 213 194 161 169 155 159 167 181 194 193 193 187 174 173 181 187 183 181 183 183 184 180 180 183 185 185 190 194 201 206 207 201 205 207 215 217 206 193 196 198 203 205 213 218 221 225 229 232 230 232 237 241 250
168 176 180 203 208 194 190 197 214 218 206 167 149 150 151 173 187 195 202 197 183 185 185 194 187 179 186 193 185 188 193 194 189 191 197 192 195 195 205 202 205 207 205 209 203 192 194 209 203 201 197 199 204 209 213 220 218 216 210 225 231 232
186 198 192 217 208 186 191 212 225 229 209 204 105 137 157 184 195 201 200 181 176 201 190 193 186 192 189 194 205 220 212 201 197 208 220 231 211 212 206 204 216 216 213 199 190 187 207 212 214 214 194 195 196 197 199 210 212 209 213 217 228 228
191 198 209 225 192 186 197 216 219 180 171 160 140 132 160 172 162 191 216 186 190 197 174 195 200 198 198 196 205 212 248 259 231 224 223 240 232 226 231 221 222 216 192 206 217 195 199 210 219 197 202 206 209 211 210 212 214 217 214 217 233 218
202 202 219 220 183 183 181 166 179 172 176 169 173 169 178 167 188 205 215 194 210 195 190 187 195 196 197 200 193 202 220 253 273 246 237 230 228 236 238 233 232 222 205 197 216 226 228 224 204 203 205 207 212 215 218 222 224 227 227 228 234 207
216 220 246 288 202 215 186 144 193 174 178 169 167 170 176 184 191 216 221 208 210 193 193 193 193 188 193 201 190 194 201 214 233 262 246 240 237 233 232 237 239 237 228 217 208 194 247 231 222 214 212 217 221 224 227 232 235 238 239 240 241 205
200 194 184 183 188 195 190 161 220 176 163 165 162 160 174 190 197 221 229 205 200 197 192 187 190 195 192 198 197 202 195 207 219 235 253 241 236 238 238 235 234 236 238 234 229 214 198 209 223 232 233 233 233 234 234 235 238 238 239 243 242 190
162 166 163 168 181 187 168 110 33 22 24 139 146 156 179 191 204 216 213 211 202 192 197 193 195 193 200 197 198 201 199 212 210 224 228 221 221 235 238 237 234 233 234 236 235 234 231 223 219 224 228 232 233 235 240 240 240 242 239 240 219 196
134 111 119 128 130 117 97 73 12 353 356 49 126 147 170 193 203 208 215 232 216 192 198 193 190 190 188 185 194 199 206 213 210 208 217 224 222 222 225 222 243 255 239 237 243 251 251 252 251 251 251 250 247 245 242 239 235 235 234 240 193 201
98 95 72 72 76 81 80 40 358 353 355 21 65 106 135 143 163 154 186 198 206 119 138 155 164 165 169 180 188 187 201 199 199 214 225 232 248 246 192 90 144 194 308 281 268 268 259 256 257 258 257 254 249 245 239 237 236 229 226 219 211 197